TimeCST,TemperatureF,Dew PointF,Humidity,Sea Level PressureIn,VisibilityMPH,Wind Direction,Wind SpeedMPH,Gust SpeedMPH,PrecipitationIn,Events,Conditions,WindDirDegrees,DateUTC
12:15 AM,34.2,29.3,82,30.36,10.0,Calm,Calm,-,N/A,,Clear,0,2013-12-28 06:15:00
12:35 AM,36.3,29.1,75,30.36,10.0,East,3.5,-,N/A,,Clear,90,2013-12-28 06:35:00
12:55 AM,39.4,29.1,67,30.36,10.0,Calm,Calm,-,N/A,,Clear,0,2013-12-28 06:55:00
1:15 AM,41.2,28.6,61,30.36,10.0,Calm,Calm,-,N/A,,Clear,0,2013-12-28 07:15:00
1:35 AM,41.5,28.2,59,30.36,10.0,Calm,Calm,-,N/A,,Clear,0,2013-12-28 07:35:00
1:55 AM,38.1,29.5,71,30.36,10.0,Calm,Calm,-,N/A,,Clear,0,2013-12-28 07:55:00
2:15 AM,38.1,30.0,73,30.36,10.0,ESE,4.6,-,N/A,,Clear,120,2013-12-28 08:15:00
2:35 AM,42.3,28.9,59,30.37,10.0,ESE,3.5,-,N/A,,Clear,120,2013-12-28 08:35:00
2:55 AM,42.4,28.6,58,30.36,10.0,ESE,3.5,-,N/A,,Clear,110,2013-12-28 08:55:00
3:15 AM,42.6,28.9,58,30.34,10.0,East,3.5,-,N/A,,Clear,100,2013-12-28 09:15:00
3:35 AM,42.3,28.8,59,30.33,10.0,Calm,Calm,-,N/A,,Clear,0,2013-12-28 09:35:00
3:55 AM,42.3,28.8,59,30.32,10.0,East,3.5,-,N/A,,Clear,80,2013-12-28 09:55:00
4:15 AM,42.4,28.9,59,30.32,10.0,ENE,3.5,-,N/A,,Clear,70,2013-12-28 10:15:00
4:35 AM,42.1,29.1,60,30.32,10.0,ENE,3.5,-,N/A,,Clear,60,2013-12-28 10:35:00
4:55 AM,41.4,29.8,64,30.31,10.0,Calm,Calm,-,N/A,,Clear,0,2013-12-28 10:55:00
5:15 AM,42.3,28.9,59,30.31,10.0,ENE,3.5,-,N/A,,Clear,70,2013-12-28 11:15:00
5:35 AM,42.1,28.8,59,30.31,10.0,ENE,3.5,-,N/A,,Clear,60,2013-12-28 11:35:00
5:55 AM,42.4,28.8,58,30.31,10.0,East,3.5,-,N/A,,Clear,90,2013-12-28 11:55:00
6:15 AM,42.6,28.8,58,30.31,10.0,East,3.5,-,N/A,,Clear,80,2013-12-28 12:15:00
6:35 AM,42.4,28.6,58,30.32,10.0,East,4.6,-,N/A,,Clear,100,2013-12-28 12:35:00
6:55 AM,42.8,28.6,57,30.31,10.0,East,4.6,-,N/A,,Clear,90,2013-12-28 12:55:00
7:15 AM,42.4,28.8,58,30.30,10.0,ENE,4.6,-,N/A,,Clear,70,2013-12-28 13:15:00
7:35 AM,42.6,28.8,58,30.31,10.0,East,4.6,-,N/A,,Clear,80,2013-12-28 13:35:00
7:55 AM,42.8,29.1,58,30.30,10.0,ESE,3.5,-,N/A,,Clear,110,2013-12-28 13:55:00
8:15 AM,43.0,29.3,59,30.30,10.0,ESE,5.8,-,N/A,,Clear,120,2013-12-28 14:15:00
8:35 AM,43.5,29.3,57,30.31,10.0,ESE,6.9,-,N/A,,Scattered Clouds,110,2013-12-28 14:35:00
8:55 AM,43.7,29.3,57,30.32,10.0,ESE,5.8,-,N/A,,Scattered Clouds,110,2013-12-28 14:55:00
9:15 AM,43.9,30.0,58,30.32,10.0,ESE,6.9,-,N/A,,Clear,110,2013-12-28 15:15:00
9:35 AM,43.9,30.2,59,30.33,10.0,ESE,8.1,-,N/A,Rain,Light Rain,110,2013-12-28 15:35:00
9:55 AM,43.5,31.5,63,30.33,10.0,ESE,5.8,-,N/A,Rain,Light Rain,120,2013-12-28 15:55:00
10:15 AM,42.8,32.0,66,30.33,10.0,ESE,3.5,-,N/A,Rain,Light Rain,120,2013-12-28 16:15:00
10:35 AM,41.9,33.4,72,30.34,10.0,SE,3.5,-,0.01,Rain,Light Rain,130,2013-12-28 16:35:00
10:55 AM,41.4,34.9,78,30.33,10.0,Calm,Calm,-,0.02,Rain,Light Rain,0,2013-12-28 16:55:00
11:15 AM,40.8,36.0,83,30.31,7.0,Calm,Calm,-,0.02,Rain,Light Rain,0,2013-12-28 17:15:00
11:35 AM,40.6,37.0,87,30.29,7.0,Calm,Calm,-,0.03,Rain,Light Rain,0,2013-12-28 17:35:00
11:55 AM,40.5,37.4,89,30.28,10.0,East,3.5,-,0.04,Rain,Light Rain,80,2013-12-28 17:55:00
12:15 PM,40.3,36.9,88,30.27,7.0,East,3.5,-,0.01,Rain,Rain,90,2013-12-28 18:15:00
12:35 PM,40.1,37.4,90,30.27,5.0,Calm,Calm,-,0.03,Rain,Rain,0,2013-12-28 18:35:00
12:55 PM,40.1,37.6,91,30.25,5.0,East,5.8,-,0.06,Rain,Rain,80,2013-12-28 18:55:00
1:15 PM,39.7,37.8,93,30.24,7.0,East,5.8,-,0.02,Rain,Light Rain,80,2013-12-28 19:15:00
1:35 PM,39.7,37.9,93,30.21,7.0,ENE,4.6,-,0.02,Rain,Light Rain,70,2013-12-28 19:35:00
1:55 PM,39.9,37.9,93,30.19,7.0,ENE,4.6,-,0.03,Rain,Light Rain,70,2013-12-28 19:55:00
2:15 PM,40.1,37.9,92,30.18,10.0,Calm,Calm,-,0.01,Rain,Light Rain,0,2013-12-28 20:15:00
2:35 PM,40.5,38.3,92,30.16,10.0,East,4.6,-,0.01,Rain,Rain,80,2013-12-28 20:35:00
2:55 PM,40.5,37.8,90,30.16,10.0,East,5.8,-,0.01,,Light Drizzle,90,2013-12-28 20:55:00
3:15 PM,40.5,37.4,89,30.16,7.0,East,6.9,-,0.01,Rain,Rain,90,2013-12-28 21:15:00
3:35 PM,40.1,37.8,91,30.14,7.0,East,6.9,-,0.02,Rain,Light Rain,90,2013-12-28 21:35:00
3:55 PM,39.7,37.8,93,30.13,7.0,East,6.9,-,0.03,Rain,Rain,90,2013-12-28 21:55:00
4:15 PM,39.6,37.6,93,30.11,5.0,ENE,9.2,-,0.03,Rain,Rain,70,2013-12-28 22:15:00
4:35 PM,39.6,37.6,93,30.11,5.0,East,5.8,-,0.07,Rain,Heavy Rain,90,2013-12-28 22:35:00
4:55 PM,39.4,37.6,93,30.10,5.0,ENE,6.9,-,0.12,Rain,Rain,70,2013-12-28 22:55:00
5:15 PM,39.0,37.4,94,30.08,5.0,ENE,8.1,-,0.03,Rain,Rain,60,2013-12-28 23:15:00
5:35 PM,39.0,37.4,94,30.08,7.0,ENE,6.9,-,0.06,Rain,Rain,70,2013-12-28 23:35:00
5:55 PM,38.8,37.4,95,30.06,5.0,ENE,6.9,16.1,0.09,Rain,Rain,70,2013-12-28 23:55:00
6:15 PM,38.8,37.4,95,30.06,3.0,ENE,9.2,-,0.04,Rain,Rain,70,2013-12-29 00:15:00
6:35 PM,38.8,37.6,95,30.05,3.0,East,6.9,16.1,0.09,Rain,Heavy Rain,80,2013-12-29 00:35:00
6:55 PM,38.7,37.6,96,30.04,2.5,East,5.8,-,0.18,Rain,Heavy Rain,80,2013-12-29 00:55:00
7:15 PM,38.7,37.6,96,30.04,2.5,East,6.9,-,0.07,Rain,Rain,100,2013-12-29 01:15:00
7:35 PM,39.0,37.9,96,30.04,5.0,ENE,4.6,-,0.13,Rain,Rain,70,2013-12-29 01:35:00
7:55 PM,39.4,38.5,97,30.04,1.2,ENE,4.6,-,0.24,Rain,Light Rain,70,2013-12-29 01:55:00
8:15 PM,39.6,38.8,97,30.04,3.0,East,3.5,-,0.03,Rain,Rain,90,2013-12-29 02:15:00
8:35 PM,40.1,39.4,97,30.03,5.0,ENE,6.9,-,0.04,,Drizzle,70,2013-12-29 02:35:00
8:55 PM,40.1,38.7,95,30.02,10.0,East,6.9,18.4,0.05,Rain,Rain,80,2013-12-29 02:55:00
9:15 PM,39.6,38.3,95,30.01,7.0,East,6.9,-,0.01,Rain,Rain,80,2013-12-29 03:15:00
9:35 PM,39.4,38.3,96,30.01,5.0,ENE,3.5,-,0.03,Rain,Rain,60,2013-12-29 03:35:00
9:55 PM,39.2,38.3,97,30.00,5.0,ENE,8.1,-,0.04,,Heavy Drizzle,70,2013-12-29 03:55:00
10:15 PM,39.2,38.3,97,29.99,3.0,East,4.6,-,0.01,,Drizzle,80,2013-12-29 04:15:00
10:35 PM,39.2,38.3,97,29.97,3.0,East,5.8,-,0.01,,Light Drizzle,80,2013-12-29 04:35:00
10:55 PM,39.4,38.7,97,29.95,7.0,East,5.8,-,0.01,,Overcast,80,2013-12-29 04:55:00
11:15 PM,39.6,38.8,97,29.94,4.0,East,5.8,-,N/A,,Drizzle,80,2013-12-29 05:15:00
11:35 PM,39.6,38.8,97,29.95,4.0,ESE,4.6,-,N/A,,Light Drizzle,110,2013-12-29 05:35:00
11:55 PM,39.7,39.2,98,29.93,4.0,Calm,Calm,-,N/A,,Overcast,0,2013-12-29 05:55:00